Theta_e
291 290 290 290 293 294 293 293 293 293 295 297 296 295 295 295 295 295 295 295 295 295 296 296 295 295 294 293 292 290 289 289 286 286 288 289 290 291 293 294 296 294 294
291 290 289 290 291 292 292 292 293 293 295 295 297 295 295 295 295 294 294 295 295 294 294 295 294 296 295 295 291 290 289 288 287 285 287 288 289 290 291 291 294 295 292
291 289 288 289 289 289 292 291 292 292 293 295 294 293 295 295 295 295 295 294 294 294 294 294 294 294 294 292 293 290 290 292 289 287 287 287 288 288 288 288 288 287 292
290 288 287 288 288 288 289 290 290 291 292 293 294 294 294 293 295 296 295 295 294 295 295 295 293 294 293 293 290 290 290 290 289 287 287 287 286 287 286 284 283 283 284
288 287 287 288 288 289 289 289 289 290 291 292 293 294 294 294 297 295 295 295 294 294 295 295 295 296 298 297 292 289 289 288 287 287 285 284 288 287 282 280 284 284 284
287 287 287 288 288 287 288 288 288 289 289 290 291 293 294 295 300 300 297 295 295 293 293 294 295 296 297 300 300 300 294 288 286 287 286 282 286 286 285 284 285 285 279
287 287 287 288 287 287 287 287 286 286 288 288 289 292 293 295 299 299 300 296 294 293 294 295 294 295 296 294 296 298 298 299 299 290 288 283 279 286 285 285 285 284 280
287 287 287 287 287 287 287 286 286 287 286 287 287 289 292 294 298 298 297 292 291 290 290 291 291 293 295 292 291 290 290 290 291 290 289 286 286 286 285 286 286 285 285
287 287 287 287 287 287 287 286 287 287 287 286 286 286 290 292 297 296 293 291 291 292 292 292 291 291 295 294 287 286 286 287 294 297 295 294 294 294 290 287 285 285 283
287 287 287 287 287 287 287 287 287 288 287 287 286 286 290 290 296 295 292 289 289 289 291 294 296 294 295 294 286 285 284 284 285 286 286 288 290 293 293 289 288 285 284
288 288 287 287 286 287 287 288 288 289 288 287 286 286 286 289 291 295 295 288 288 287 287 290 293 296 296 295 293 288 287 287 288 286 286 286 286 286 286 288 288 288 286
288 287 287 286 286 287 288 289 288 288 288 288 287 287 286 286 293 293 294 294 292 286 286 287 290 294 295 294 292 294 292 290 286 285 284 283 284 284 285 286 286 287 288
287 286 286 286 286 286 287 290 289 287 286 287 287 287 288 287 286 292 293 293 292 287 289 290 291 291 291 290 292 291 288 284 284 282 281 282 283 284 285 285 285 285 285
287 286 286 285 285 284 286 290 290 289 287 286 287 287 288 288 288 287 286 285 289 286 286 286 288 288 289 287 284 284 284 284 281 281 281 281 282 282 281 282 282 282 282
287 286 285 285 284 284 284 286 290 292 292 289 286 288 287 287 289 292 290 287 286 288 285 283 282 281 281 281 281 281 282 281 280 280 281 281 281 282 281 282 282 282 281
286 286 285 284 284 284 283 283 290 292 294 294 294 291 290 292 293 292 293 292 291 290 284 281 281 281 280 280 280 280 280 281 280 280 280 281 281 281 281 281 281 281 280
287 287 284 285 284 283 282 282 282 285 290 292 293 293 293 293 292 292 291 290 291 287 282 281 281 281 281 281 281 280 279 280 281 280 279 280 281 281 281 281 281 281 281
288 291 284 283 283 282 282 282 282 282 282 283 288 291 292 292 292 291 289 287 283 284 282 281 281 281 281 281 281 282 282 282 282 282 282 282 282 282 282 282 282 282 282
288 287 284 283 284 285 283 282 282 282 283 283 284 286 288 290 290 289 288 282 282 281 281 281 281 281 282 282 282 282 282 283 283 283 283 283 283 283 283 283 283 286 284
288 290 288 284 283 283 282 282 282 282 281 282 283 283 284 283 282 282 282 282 281 280 280 280 281 281 281 282 282 283 283 283 283 283 283 283 283 283 283 283 283 282 282
287 286 289 284 283 283 282 282 282 281 281 281 281 287 289 281 281 281 281 281 280 280 280 280 281 281 281 281 282 282 282 282 282 282 282 282 283 282 282 283 283 283 283
286 285 285 284 284 284 282 282 282 282 282 281 282 284 288 282 281 281 281 282 282 281 281 282 282 282 282 282 282 282 281 281 281 282 282 283 283 283 283 283 283 282 282
285 285 284 283 283 285 282 282 282 282 282 282 282 282 283 282 281 281 281 281 281 281 282 282 282 283 284 283 283 283 282 281 281 281 281 281 282 282 282 282 282 283 283
285 285 283 283 284 282 282 282 282 284 283 282 282 282 282 282 281 281 281 281 281 281 281 281 282 282 283 283 284 284 284 284 282 282 282 281 281 281 281 281 281 282 282
285 284 283 282 282 281 282 282 282 282 282 282 282 282 282 282 282 282 281 281 281 281 281 281 282 283 283 283 284 285 288 288 285 285 282 282 281 281 280 280 280 280 281
284 284 283 283 282 282 282 282 282 282 282 282 282 282 282 282 282 282 282 281 281 281 281 282 282 283 284 284 286 289 289 289 286 287 283 282 282 281 281 280 281 280 280
Wind_Speed
17 17 17 16 17 13 15 16 15 16 14 10 7 6 5 4 4 3 3 6 5 5 6 7 7 6 2 2 2 2 3 4 4 2 3 3 3 4 4 2 2 3 4
16 15 16 16 16 17 15 16 17 17 14 16 10 6 6 5 4 4 4 4 4 6 6 7 8 6 8 8 3 4 3 3 4 5 4 4 5 3 2 3 3 2 3
17 15 15 16 16 17 17 18 17 17 17 14 13 14 11 5 5 5 4 5 6 6 7 7 8 8 6 3 7 5 4 4 4 3 4 3 3 1 0 1 2 2 2
16 15 15 16 15 15 15 16 17 17 17 16 15 12 12 10 9 7 6 5 5 4 6 7 5 6 6 8 6 5 5 5 4 4 4 4 2 1 1 2 3 0 2
15 15 15 14 15 15 15 15 15 17 17 18 17 15 13 10 10 9 7 5 2 4 2 2 5 7 11 12 4 5 5 4 3 3 3 2 3 3 3 1 2 2 2
14 14 14 14 14 14 15 15 15 17 17 17 19 16 17 12 28 4 7 6 4 2 4 3 3 10 9 15 15 19 12 6 5 5 4 4 5 4 3 3 2 2 2
13 13 14 13 14 14 14 14 14 14 16 17 18 19 17 19 33 32 28 6 8 2 4 3 3 4 8 2 1 12 14 5 12 6 5 5 4 8 6 4 4 3 2
13 13 13 13 13 13 14 15 14 12 14 14 16 19 15 18 34 33 27 15 12 13 12 10 10 10 2 5 7 7 7 8 3 2 2 3 4 5 6 5 5 4 3
13 13 13 13 12 13 14 13 13 11 13 13 13 17 19 17 32 30 21 13 13 11 9 10 9 10 16 16 10 9 9 9 13 14 2 3 3 8 9 7 6 8 2
13 12 11 11 12 13 11 11 11 9 8 10 15 15 23 17 29 29 21 11 13 11 14 10 22 16 22 21 10 9 10 7 9 10 10 13 14 13 14 6 3 5 4
12 11 10 10 10 12 11 9 11 11 13 12 9 11 15 18 19 28 26 12 9 9 11 9 10 23 22 21 17 9 10 8 11 7 6 6 6 7 6 7 7 5 4
11 10 10 10 8 9 12 8 11 11 13 14 15 11 9 10 23 24 26 25 22 10 10 9 13 26 24 22 15 21 20 13 6 7 7 7 7 7 7 7 8 7 6
12 11 9 9 8 9 11 13 10 10 9 11 10 10 10 7 8 23 24 23 22 12 10 17 22 22 22 17 23 21 15 7 7 8 7 6 6 5 5 5 6 8 10
11 11 9 7 8 8 7 9 9 10 8 9 9 10 9 9 9 8 8 8 16 11 13 11 15 17 20 16 12 11 7 6 6 5 5 3 3 4 5 4 3 3 5
11 9 9 6 6 6 6 6 9 11 13 8 7 9 8 10 12 17 14 9 7 12 10 8 8 8 9 8 7 8 6 6 6 5 5 5 5 5 4 4 4 5 5
9 8 7 6 6 5 5 6 12 16 20 21 21 14 9 18 19 20 21 21 20 19 7 7 7 7 7 7 7 7 7 8 5 5 5 4 4 4 4 4 4 3 3
9 8 6 7 5 5 5 6 7 8 13 17 20 21 20 19 20 19 19 19 20 13 7 7 7 7 6 6 5 4 4 4 5 5 4 4 4 4 4 3 3 3 3
10 14 5 5 4 4 5 5 4 6 7 7 9 15 19 19 21 21 18 14 9 10 6 6 6 6 6 5 5 5 5 5 4 4 4 5 5 4 4 4 3 2 2
8 6 5 5 4 5 4 5 4 6 6 6 6 9 14 16 18 19 18 7 6 6 6 6 5 5 5 5 5 4 4 4 3 3 3 3 3 2 2 3 3 5 4
7 14 9 4 4 4 4 5 5 5 5 5 6 6 6 7 9 8 7 6 6 6 5 5 5 5 5 5 5 5 5 5 5 4 3 3 3 2 3 3 2 2 2
5 5 10 5 5 4 4 4 4 4 4 5 5 8 15 6 5 5 5 5 5 5 6 5 5 5 4 4 4 5 4 4 4 4 4 4 4 3 3 3 3 3 3
4 5 4 4 4 5 4 4 4 4 5 5 4 6 14 6 5 5 6 6 5 4 4 5 5 5 4 4 4 4 5 5 5 4 4 4 4 4 4 4 4 4 4
4 5 5 4 4 6 5 4 4 4 4 5 5 5 5 5 5 5 6 6 6 6 6 5 5 6 6 5 4 4 4 4 4 4 4 4 4 4 4 5 5 5 4
4 5 5 5 4 4 4 5 4 6 5 4 5 5 5 4 5 5 5 5 6 6 5 6 6 7 7 7 5 5 4 4 4 4 5 4 4 5 4 4 4 5 4
4 4 4 4 4 4 4 4 4 4 4 4 4 4 4 5 5 5 5 5 5 6 7 6 6 8 8 10 9 9 11 12 8 8 4 5 6 7 5 4 4 4 5
5 4 3 4 4 4 4 4 4 4 4 4 4 4 4 4 4 5 5 6 5 6 7 6 7 10 10 8 9 13 14 14 10 12 5 5 5 5 5 5 6 4 5
Wind_Direction
346 343 342 340 342 350 349 348 346 341 341 332 329 326 321 314 306 287 297 231 270 236 218 214 222 219 204 173 159 162 175 158 183 251 211 201 230 235 263 256 245 266 287
344 342 344 343 346 348 355 352 351 349 353 359 340 319 311 311 305 301 285 264 268 222 242 228 239 225 234 231 207 197 182 171 145 190 219 226 214 207 222 275 255 215 280
347 350 348 351 349 347 355 354 356 355 354 358 2 355 334 290 266 269 257 251 221 225 224 238 231 215 235 223 224 209 204 202 184 173 221 222 238 187 236 199 249 280 272
346 351 351 351 349 346 348 356 356 357 360 345 358 345 348 333 308 252 240 236 227 228 219 223 224 240 231 234 220 216 208 210 189 188 207 225 223 235 169 212 289 14 311
347 351 352 348 349 350 354 352 352 357 0 356 358 357 358 340 310 202 211 219 222 238 232 266 226 222 235 236 218 219 198 198 204 207 212 157 205 223 198 217 244 286 286
348 349 349 352 352 355 351 354 355 353 358 0 355 2 10 10 14 197 186 190 167 53 305 284 259 265 278 278 263 230 208 184 202 197 210 194 216 211 190 216 220 226 287
348 348 352 353 356 353 350 355 356 356 356 3 2 3 14 25 36 41 42 72 66 29 315 337 277 254 266 265 351 45 43 243 235 199 210 201 190 204 178 189 182 199 192
346 348 352 352 354 352 355 357 355 357 0 1 4 5 10 32 38 38 43 49 54 46 39 30 28 18 87 108 90 66 52 36 36 337 283 245 219 195 192 187 169 114 88
346 346 349 347 348 355 354 353 355 355 7 9 10 9 13 21 44 39 32 29 35 43 55 54 46 49 60 69 68 74 62 42 32 54 98 206 212 203 165 134 145 143 115
341 337 336 341 347 351 342 353 349 351 3 13 15 14 15 18 38 43 41 26 29 27 25 32 66 71 70 65 57 62 67 50 50 44 39 39 41 67 80 72 111 129 116
332 330 336 341 341 347 340 350 352 16 21 24 21 20 17 13 20 37 45 35 32 41 34 22 46 55 61 70 74 71 73 56 52 50 48 43 44 48 47 57 59 63 78
332 332 340 343 349 349 347 7 9 3 20 24 27 28 30 17 29 31 40 40 34 33 37 35 36 44 55 60 56 63 64 47 37 41 42 37 41 39 39 51 55 60 58
335 335 343 345 355 352 352 23 26 15 12 17 17 19 17 29 23 34 34 44 43 34 38 45 46 49 46 42 52 55 48 40 44 46 38 31 26 23 45 58 54 69 64
336 333 339 350 4 351 353 356 18 29 24 17 14 15 16 23 34 32 27 23 31 37 30 33 43 44 48 44 37 29 25 46 45 40 39 17 9 18 31 7 41 50 63
337 334 340 349 350 353 358 1 10 23 34 30 29 9 21 27 35 42 41 36 38 42 33 27 25 21 24 22 23 23 17 27 32 19 32 31 31 32 29 358 27 42 66
337 339 343 346 350 356 3 354 7 24 27 39 40 45 27 42 43 40 44 44 40 38 28 27 26 26 26 17 16 13 18 22 11 22 25 26 31 32 28 20 28 39 51
338 331 337 354 353 359 358 13 1 348 25 26 36 39 41 44 45 43 43 40 38 30 28 18 19 16 14 18 18 15 4 357 1 21 27 17 19 31 33 22 18 19 24
339 347 341 336 345 356 5 5 360 3 0 1 6 25 35 39 46 43 35 33 20 19 21 14 7 6 4 7 5 6 5 13 15 12 15 11 13 9 6 12 19 16 21
340 331 344 341 345 15 8 4 9 10 6 356 358 12 14 26 44 39 35 34 19 12 4 2 357 358 358 355 356 351 359 12 25 23 13 12 3 349 350 349 353 34 48
340 347 4 349 346 1 4 14 7 15 5 0 7 9 352 9 30 16 11 11 10 357 356 354 347 348 354 354 351 350 359 10 7 6 355 352 346 349 348 346 358 6 6
337 334 356 358 357 360 1 17 0 10 12 5 358 13 31 27 7 7 6 8 358 348 344 342 343 345 347 348 349 349 356 355 3 358 353 347 351 2 354 360 15 35 64
345 339 344 350 348 352 6 5 16 7 12 9 352 0 22 14 6 3 359 359 350 339 330 330 337 340 339 344 342 346 350 354 354 354 353 346 359 6 6 16 26 34 42
352 358 350 344 356 3 356 3 10 17 3 7 359 1 359 1 360 358 356 348 349 351 347 349 351 351 346 344 349 347 351 350 340 342 7 8 10 24 13 26 17 21 21
14 4 6 346 344 2 357 350 1 13 20 0 1 359 357 352 353 353 351 346 349 348 349 350 351 353 351 352 353 355 356 359 10 10 25 23 27 34 27 32 26 27 24
27 24 11 8 347 340 345 349 345 355 356 12 354 354 347 349 351 351 349 348 348 351 351 351 350 349 357 358 5 9 16 24 26 28 22 36 44 41 40 30 27 25 29
336 29 37 4 13 348 339 341 341 337 347 344 355 351 346 348 345 343 344 351 351 350 352 351 354 360 359 356 4 18 24 28 32 35 28 30 40 42 38 41 36 35 30